Date String (YYYY-MM-DD hh:mm:ss) UTC,Instrument flags,Ambient pressure (hPa),Sample flow (lpm),Bypass flow (lpm),Sample temperature (°C),Ambient temperature (°C),ASC tube jacket temperature (°C),LED temperature (°C),Box temperature (°C),Sample RH (%),Span deviation,Mass concentration (μg/m³),Mass concentration (μg/m³),Mass concentration (μg/m³)
DateTimeUTC,F1_M11,P_M11,Q1_M11,Q2_M11,T1_M11,T2_M11,T3_M11,T4_M11,T5_M11,U1_M11,ZSPAN_M11,X0_M11,X2_M11,X1_M11
2022-03-26 01:00:00,,0826.7,5.02,0.00,29.8,28.8,00.0,38.6,31.5,11.5,0002.9,0026.94,0009.13,0006.79
2022-03-26 01:01:00,,0826.7,4.99,0.00,29.8,28.8,00.0,38.7,31.5,11.5,0002.8,0026.75,0009.09,0006.75
2022-03-26 01:02:00,,0826.7,4.99,0.00,29.8,28.8,00.0,38.7,31.5,11.5,0002.7,0025.97,0008.96,0006.72
2022-03-26 01:03:00,,0826.7,5.02,0.00,29.8,28.9,00.0,38.7,31.6,11.5,0002.5,0025.09,0008.93,0006.69
2022-03-26 01:04:00,,0826.6,4.99,0.00,29.8,28.9,00.0,38.7,31.6,11.5,0002.2,0024.20,0008.87,0006.65
2022-03-26 01:05:00,,0826.6,4.99,0.00,29.8,28.9,00.0,38.7,31.6,11.4,0001.9,0023.72,0008.90,0006.63
2022-03-26 01:06:00,,0826.6,5.01,0.00,29.8,28.9,00.0,38.7,31.6,11.4,0001.9,0022.33,0008.91,0006.60
2022-03-26 01:07:00,,0826.6,4.99,0.00,29.8,28.9,00.0,38.7,31.6,11.3,0001.8,0022.89,0008.95,0006.57
2022-03-26 01:08:00,,0826.6,5.00,0.00,29.8,28.9,00.0,38.7,31.6,11.3,0001.1,0023.38,0009.01,0006.56
2022-03-26 01:09:00,,0826.6,5.01,0.00,29.8,28.9,00.0,38.7,31.6,11.3,0000.9,0022.99,0009.06,0006.54
2022-03-26 01:10:00,,0826.6,4.98,0.00,29.8,28.9,00.0,38.7,31.6,11.3,0001.2,0022.16,0009.02,0006.50
2022-03-26 01:11:00,,0826.6,5.01,0.00,29.8,28.9,00.0,38.7,31.6,11.3,0001.6,0022.00,0009.00,0006.49
2022-03-26 01:12:00,,0826.6,5.00,0.00,29.9,28.9,00.0,38.7,31.6,11.3,0000.9,0021.51,0008.95,0006.48
2022-03-26 01:13:00,,0826.7,4.99,0.00,29.9,28.9,00.0,38.8,31.6,11.3,0000.6,0021.87,0008.97,0006.47
2022-03-26 01:14:00,,0826.7,5.01,0.00,29.9,28.9,00.0,38.8,31.6,11.2,-000.5,0023.33,0008.96,0006.46
2022-03-26 01:15:00,,0826.6,4.99,0.00,29.9,28.9,00.0,38.8,31.6,11.2,0000.1,0024.06,0009.00,0006.45
2022-03-26 01:16:00,,0826.6,5.02,0.00,29.9,28.9,00.0,38.8,31.6,11.2,0000.4,0024.79,0008.95,0006.43
2022-03-26 01:17:00,,0826.6,5.00,0.00,29.9,28.9,00.0,38.8,31.6,11.2,0000.1,0024.73,0008.93,0006.41
2022-03-26 01:18:00,,0826.6,4.99,0.00,29.9,29.0,00.0,38.8,31.6,11.3,-000.7,0024.41,0008.88,0006.41
2022-03-26 01:19:00,,0826.6,5.02,0.00,29.9,29.0,00.0,38.8,31.7,11.3,-000.2,0023.58,0008.78,0006.41
2022-03-26 01:20:00,,0826.5,4.99,0.00,29.9,29.0,00.0,38.8,31.7,11.3,0000.2,0023.17,0008.72,0006.39
2022-03-26 01:21:00,,0826.6,5.02,0.00,29.9,29.0,00.0,38.8,31.7,11.3,-000.1,0023.20,0008.74,0006.41
2022-03-26 01:22:00,,0826.6,5.00,0.00,29.9,29.0,00.0,38.8,31.7,11.3,-000.3,0023.42,0008.76,0006.45
2022-03-26 01:23:00,,0826.6,5.00,0.00,29.9,29.0,00.0,38.8,31.7,11.3,-000.2,0023.98,0008.81,0006.47
2022-03-26 01:24:00,,0826.6,5.01,0.00,29.9,29.0,00.0,38.8,31.7,11.3,0000.3,0024.64,0008.82,0006.48
2022-03-26 01:25:00,,0826.6,5.00,0.00,29.9,29.0,00.0,38.8,31.7,11.3,0001.1,0023.42,0008.81,0006.50
2022-03-26 01:26:00,,0826.6,5.01,0.00,29.9,29.0,00.0,38.8,31.7,11.3,0000.4,0022.43,0008.77,0006.52
2022-03-26 01:27:00,,0826.6,4.99,0.00,29.9,29.0,00.0,38.8,31.7,11.3,0000.3,0021.90,0008.77,0006.54
2022-03-26 01:28:00,,0826.6,5.01,0.00,29.9,29.0,00.0,38.8,31.7,11.3,0000.6,0024.31,0008.76,0006.56
2022-03-26 01:29:00,,0826.6,4.99,0.00,30.0,29.0,00.0,38.9,31.7,11.3,0000.7,0024.94,0008.80,0006.57
2022-03-26 01:30:00,,0826.6,5.00,0.00,30.0,29.0,00.0,38.9,31.7,11.3,0000.6,0024.76,0008.82,0006.54
2022-03-26 01:31:00,,0826.6,5.00,0.00,30.0,29.0,00.0,38.9,31.7,11.3,0000.0,0024.17,0008.91,0006.55
2022-03-26 01:32:00,,0826.6,5.00,0.00,30.0,29.0,00.0,38.9,31.7,11.3,-000.4,0024.05,0008.95,0006.54
2022-03-26 01:33:00,,0826.7,5.00,0.00,30.0,29.0,00.0,38.9,31.7,11.3,-000.3,0024.24,0008.96,0006.50
2022-03-26 01:34:00,,0826.7,4.99,0.00,30.0,29.0,00.0,38.9,31.7,11.3,-000.3,0024.21,0008.93,0006.46
2022-03-26 01:35:00,,0826.7,5.00,0.00,30.0,29.0,00.0,38.9,31.8,11.3,-000.2,0023.85,0008.92,0006.45
2022-03-26 01:36:00,,0826.7,5.02,0.00,30.0,29.1,00.0,38.9,31.7,11.3,-000.6,0023.44,0008.93,0006.43
2022-03-26 01:37:00,,0826.6,4.99,0.00,30.0,29.1,00.0,38.9,31.7,11.3,-000.8,0024.20,0008.91,0006.40
2022-03-26 01:38:00,,0826.5,4.99,0.00,30.0,29.0,00.0,38.9,31.7,11.3,-000.8,0024.42,0008.90,0006.36
2022-03-26 01:39:00,,0826.6,5.02,0.00,30.0,29.0,00.0,38.9,31.8,11.3,-001.5,0023.06,0008.89,0006.33
2022-03-26 01:40:00,,0826.5,4.99,0.00,30.0,29.0,00.0,38.9,31.7,11.3,-001.3,0022.87,0008.89,0006.30
2022-03-26 01:41:00,,0826.6,5.01,0.00,30.0,29.0,00.0,38.9,31.8,11.3,-001.5,0023.47,0008.88,0006.29
2022-03-26 01:42:00,,0826.5,4.99,0.00,30.0,29.0,00.0,38.9,31.8,11.3,-001.3,0023.56,0008.80,0006.25
2022-03-26 01:43:00,,0826.5,5.01,0.00,30.0,29.0,00.0,38.9,31.7,11.3,-000.7,0023.64,0008.71,0006.21
2022-03-26 01:44:00,,0826.5,5.00,0.00,30.0,29.0,00.0,38.9,31.8,11.3,-000.3,0023.68,0008.65,0006.15
2022-03-26 01:45:00,,0826.5,4.99,0.00,30.0,29.0,00.0,38.9,31.8,11.3,-000.0,0023.29,0008.63,0006.10
2022-03-26 01:46:00,,0826.5,5.01,0.00,30.0,29.0,00.0,38.9,31.8,11.3,-000.6,0023.61,0008.64,0006.05
2022-03-26 01:47:00,,0826.5,5.01,0.00,30.0,29.0,00.0,38.9,31.8,11.2,-000.3,0023.64,0008.66,0006.01
2022-03-26 01:48:00,,0826.5,4.98,0.00,30.0,29.0,00.0,38.9,31.8,11.2,0000.3,0023.10,0008.67,0005.97
2022-03-26 01:49:00,,0826.5,5.01,0.00,30.0,29.1,00.0,38.9,31.8,11.3,0000.2,0023.31,0008.68,0005.94
2022-03-26 01:50:00,,0826.5,4.99,0.00,30.0,29.1,00.0,38.9,31.7,11.3,0001.7,0023.27,0008.73,0005.93
2022-03-26 01:51:00,,0826.6,4.99,0.00,30.0,29.1,00.0,38.9,31.8,11.3,0002.2,0023.70,0008.74,0005.91
2022-03-26 01:52:00,,0826.6,5.01,0.00,30.0,29.1,00.0,38.9,31.8,11.3,0002.4,0024.52,0008.72,0005.89
2022-03-26 01:53:00,,0826.6,4.99,0.00,30.0,29.1,00.0,38.9,31.8,11.3,0002.3,0025.80,0008.73,0005.88
2022-03-26 01:54:00,,0826.6,5.00,0.00,30.0,29.1,00.0,38.9,31.7,11.3,0002.5,0027.63,0008.78,0005.92
2022-03-26 01:55:00,,0826.5,5.01,0.00,30.0,29.1,00.0,39.0,31.8,11.3,0002.5,0028.22,0008.74,0005.96
2022-03-26 01:56:00,,0826.6,5.01,0.00,30.0,29.1,00.0,39.0,31.7,11.3,0001.0,0028.61,0008.75,0005.98
2022-03-26 01:57:00,,0826.6,4.98,0.00,30.0,29.1,00.0,39.0,31.7,11.3,0000.7,0029.10,0008.79,0006.01
2022-03-26 01:58:00,,0826.6,5.01,0.00,30.0,29.1,00.0,39.0,31.8,11.3,-000.7,0029.55,0008.75,0006.03
2022-03-26 01:59:00,,0826.6,4.98,0.00,30.0,29.1,00.0,39.0,31.8,11.3,-000.2,0029.64,0008.74,0006.05
